STARLINK-37096, 68239

Orbit data source: Space-Track

STARLINK-37096, 68239 is a payload satellite owned by SpaceX/Seattle (US) in LEO that was launched on Tue, 17 Mar 2026 UTC via an FALCON 9 launch vehicle from the Air Force Eastern Test Range (AFETR). Payload-class satellites include a variety of spacecraft equipped with specific instruments for various scientific and technological missions. These include communications satellites like Starlink; space stations such as the ISS; scientific satellites like the Hubble; Earth observation satellites from companies like Planet Labs, Umbra, and HawkEye 360; GPS; miniature CubeSats for education and research; and military/defense satellites.

Loading next visibility...
Identifier
68239, 2026-054H
Orbit
LEO
Country
Flag of USUS
Related business
Manufacturer
SpaceX/Seattle
Mission
Operational spacecraft
Bus & Motor
STARLINK V2MO, Unknown motor
Mass
575 kg wet, ~530 kg dry
Launch date (UTC)
2026-03-17 (2 months ago)
Launch vehicle
FALCON 9
Launch site
Air Force Eastern Test Range (AFETR)
Object type
Payload
Rocket body
Debris
Shape & HBR
Unknown shape, 17.7 m
Radar Cross Section
RCS unknown

Expand to show TLE details & history
Last TLE update: 19 hours ago

TLE from 19 hours ago
0 STARLINK-37096
1 68239U 26054H   26145.00002315  .00001618  00000-0  57271-4 0  9996
2 68239  53.1583 295.7891 0000709  43.7141 105.5456 15.35402493  5920
Epoch: 2026-05-25T00:00Z
TLE epoch observation values (Epoch: 2026-05-25T00:00:02.000Z)
Latitude
24.20571°
Longitude
-146.3823°
Altitude
460.743 km
Speed
7.64 km/s
True Right ascension
06h 24m 52s
True Declination
24° 04' 18"
Sunlit
Object was in daylight at epoch
Visualization orbit readout
Latitude
Unknown
Longitude
Unknown
Altitude
Unknown
Speed
Unknown
Apparent Right ascension
Unknown
Apparent Declination
Unknown
Sunlit
N/A
Visualization observer readout
Local Sidereal Time
03:53:21
Azimuth
Unknown
Elevation
Unknown
Doppler factor
Unknown
Orbital elements
Apogee altitude
460.467 km
Perigee altitude
459.498 km
Semi-major axis
6,838.12 km
Eccentricity
0.00007
Inclination
53.1583°
RAAN
295.7891°
Arg. of periapsis
43.7141°
True anomaly
105.55343°
Mean anomaly
105.5456°
Eccentric anomaly
105.54951°
Mean motion
3.83829 °/min
Orbital period
93.79 mins
BSTAR
0.000057271
Loading maneuver chart data...
Computing Atmospheric mass density...
Loading historical data...
Loading historical data...
Loading historical data...
Loading historical data...
Loading historical data...
Loading historical data...
Loading historical data...

Documentation

Showing up to 5 results
|